Wind_Speed
20 20 20 20 20 20 21 21 20 20 19 20 20 19 19 19 19 19 18 17 18 17 16 16 16 16 15 15 15 15 15 15 15 15 14 14 15 15 16 16 16 17 17
21 21 21 21 22 22 21 21 21 21 21 20 20 20 20 20 21 21 20 19 19 18 18 18 18 18 17 17 17 16 16 16 16 16 16 16 16 17 17 18 18 18 19
21 21 21 21 21 22 22 23 22 22 22 21 21 20 21 22 22 21 21 21 20 19 20 20 20 19 19 18 19 18 18 18 18 18 18 18 18 18 19 19 19 20 21
21 22 22 21 22 23 23 23 23 22 22 22 21 21 22 22 23 22 22 21 21 21 21 21 21 21 20 20 20 20 21 20 20 19 19 20 20 21 21 21 22 22 23
23 23 23 22 23 23 24 24 23 24 23 23 22 22 22 23 23 22 21 21 22 22 21 22 22 22 22 22 21 21 22 21 22 22 22 22 23 23 23 24 24 25 25
24 23 22 22 23 24 24 25 24 24 24 24 24 23 23 23 23 23 23 22 23 23 22 22 23 23 23 23 23 23 23 23 23 24 24 24 24 25 25 25 26 26 27
24 24 23 23 24 25 26 26 26 25 25 25 26 25 24 24 24 24 25 25 24 24 23 24 24 24 24 24 24 24 25 24 25 26 26 26 27 27 27 28 28 28 28
24 24 24 24 25 26 27 27 27 27 27 27 27 27 27 26 25 26 25 26 26 25 24 24 25 25 26 26 26 26 26 26 27 28 28 28 29 29 29 29 30 30 31
25 25 25 26 26 27 28 28 28 28 28 28 29 29 29 28 28 27 27 27 26 26 26 25 25 26 26 26 27 27 27 28 28 29 30 30 30 30 30 31 31 32 33
26 26 26 27 27 28 29 29 29 29 29 29 30 30 30 30 29 28 29 29 28 28 28 28 28 27 27 28 28 28 28 29 29 29 30 31 32 32 32 33 34 34 35
27 27 27 28 28 29 29 30 30 30 29 29 30 31 31 31 30 29 29 28 28 28 28 28 29 28 29 29 29 29 29 29 29 29 30 31 32 33 33 34 34 35 35
27 28 28 28 28 29 29 29 29 30 30 30 30 30 30 30 30 29 29 29 28 28 28 29 28 28 29 30 29 29 29 29 30 31 32 32 33 33 34 33 34 35 35
28 28 28 28 28 29 29 29 29 30 29 29 29 29 29 30 30 29 29 28 28 28 28 29 29 29 29 29 29 30 30 30 31 32 33 33 33 33 33 33 34 35 36
27 28 28 28 28 28 28 29 29 29 29 29 28 28 28 28 29 29 29 28 29 28 27 28 29 29 29 29 29 30 31 31 32 33 33 33 33 32 33 34 35 36 37
27 27 27 27 27 28 28 27 28 28 28 27 28 28 28 28 28 28 28 28 28 28 27 27 28 28 28 29 30 30 31 31 32 32 31 32 33 33 33 35 36 36 36
27 27 27 27 27 27 27 26 27 27 27 26 26 26 26 27 27 27 27 27 28 27 27 28 28 28 29 30 30 30 31 31 30 30 30 31 32 33 33 33 34 34 33
27 27 27 27 26 25 26 26 25 25 25 25 25 25 25 25 25 25 26 27 26 27 28 28 28 28 29 29 29 29 29 28 29 29 29 30 31 31 31 31 32 32 32
26 26 26 25 25 25 25 25 24 23 23 23 22 22 22 23 23 24 24 24 25 26 27 26 26 27 26 27 27 27 26 26 27 27 28 28 29 29 30 30 30 30 30
26 25 25 24 23 24 23 23 22 21 21 20 20 20 20 20 21 21 22 23 24 24 23 22 21 21 21 23 23 24 24 25 26 26 27 27 27 28 28 28 28 28 28
25 24 23 22 21 21 21 21 20 19 18 18 18 17 17 18 19 19 19 19 20 20 18 18 17 18 19 20 20 22 23 23 23 24 25 25 26 26 26 26 26 26 26
22 21 20 19 19 19 19 18 17 16 16 15 15 15 15 15 15 15 14 15 15 16 16 16 16 17 17 18 19 20 21 21 21 22 23 24 24 24 24 24 24 24 24
20 19 18 18 17 16 16 15 15 15 14 14 14 14 13 13 13 12 12 12 13 13 14 14 15 15 17 18 18 18 18 19 20 21 22 22 22 22 22 22 22 22 22
18 17 16 15 15 14 13 13 12 12 12 12 12 11 11 12 12 11 11 12 12 12 13 13 14 15 16 16 17 17 18 18 18 19 20 20 21 20 20 20 20 20 20
16 15 15 14 13 11 11 10 10 11 10 9 9 9 9 9 9 10 10 11 11 11 11 12 13 14 14 15 15 15 16 17 17 18 18 18 18 17 17 17 17 18 18
12 12 12 11 10 10 9 9 9 8 8 7 7 7 6 7 7 9 9 9 9 10 10 10 11 11 12 12 13 14 14 14 15 15 15 15 14 14 15 16 16 16 16
8 9 10 10 10 9 9 8 8 7 6 6 6 7 6 7 7 7 7 7 8 8 8 9 9 10 10 11 11 11 12 12 12 12 12 12 12 13 14 14 14 14 14
Wind_Direction
261 263 266 267 268 267 267 269 268 268 268 266 262 261 260 261 260 260 261 261 259 259 255 256 258 260 261 258 259 261 263 266 267 270 272 275 277 278 278 280 280 282 283
263 263 265 266 265 265 266 267 267 269 268 267 263 259 259 260 259 261 259 259 259 258 258 258 258 258 260 259 260 262 263 267 268 269 271 274 277 279 278 278 281 282 283
262 262 265 265 264 264 263 267 267 267 266 262 261 261 259 258 259 260 260 260 258 259 260 261 258 256 258 260 260 263 265 267 267 268 270 272 275 278 278 279 281 283 283
262 262 264 264 265 262 263 267 266 265 266 262 260 261 260 260 258 260 260 258 258 258 260 260 260 258 259 259 261 263 265 266 265 267 270 273 276 278 279 280 281 282 284
267 264 266 265 264 263 263 263 264 266 267 265 262 262 262 262 261 260 259 258 257 257 259 259 259 259 260 260 262 264 264 265 265 266 270 273 275 277 278 280 281 282 284
267 265 265 264 265 265 264 265 266 267 267 267 264 263 263 263 261 259 259 260 260 260 260 259 259 260 262 263 262 262 264 266 267 267 270 273 276 278 279 282 283 283 284
269 268 266 264 264 265 265 265 265 266 265 265 266 264 264 264 264 262 259 258 259 261 260 258 258 260 262 263 262 263 265 266 268 269 270 273 275 278 280 281 282 283 284
270 270 269 267 265 265 265 264 264 263 262 264 264 262 262 264 264 262 260 259 259 259 259 258 258 259 261 261 262 262 263 266 269 271 272 274 276 278 279 281 282 283 284
273 273 271 270 267 265 264 263 264 264 263 263 264 263 262 264 263 261 260 258 257 257 257 258 259 260 261 261 261 262 263 266 270 271 273 275 277 278 280 281 282 284 285
273 273 272 271 268 265 264 264 264 265 263 262 263 262 262 263 262 261 260 259 257 257 258 261 261 261 262 263 263 264 263 267 269 272 274 276 276 277 279 282 283 285 286
274 274 273 273 270 267 266 265 264 265 263 262 263 263 263 262 262 261 259 257 256 258 260 260 260 261 260 261 263 264 265 267 269 272 275 277 278 278 280 282 283 285 285
275 274 272 272 271 268 267 266 265 265 264 263 264 264 262 263 261 260 258 257 255 256 259 258 258 261 260 261 262 265 266 267 270 273 276 278 279 279 280 281 283 285 286
274 274 273 271 270 268 267 266 266 266 265 264 264 264 263 261 260 259 257 257 257 257 260 259 258 260 260 261 262 263 263 266 269 274 276 276 276 278 279 280 283 285 286
275 273 272 270 269 268 268 267 267 266 265 263 262 262 261 260 258 257 255 256 258 257 260 259 259 260 259 260 262 264 265 267 270 272 274 275 276 277 279 281 283 285 285
274 272 270 270 269 269 269 268 268 267 265 264 262 261 261 261 258 255 254 254 256 257 260 261 258 258 259 261 263 265 266 268 269 270 273 275 276 278 280 282 283 284 286
273 271 271 270 269 269 269 269 269 268 265 264 262 261 261 261 258 255 254 254 256 257 257 258 259 257 258 260 262 263 264 266 269 272 274 275 277 278 280 283 285 286 287
272 271 271 270 270 269 270 270 270 268 264 261 260 259 259 257 256 254 253 253 254 255 255 256 259 259 258 259 260 262 264 268 270 273 275 276 277 278 281 282 284 285 286
271 271 271 270 269 270 270 269 269 267 265 261 260 259 258 256 253 251 250 250 251 253 254 254 257 257 259 261 262 263 266 269 270 272 274 276 278 280 282 284 285 286 286
271 271 269 268 269 271 270 266 265 265 263 259 259 256 254 256 254 251 250 250 250 252 252 252 255 257 260 260 261 265 268 270 271 272 275 279 281 283 283 284 285 286 287
269 268 265 265 267 268 267 264 261 260 260 258 255 252 251 253 253 254 254 252 250 250 250 251 253 258 262 264 267 271 273 273 274 277 279 281 282 283 284 285 286 287 289
265 265 263 263 264 264 262 258 255 255 254 252 251 249 250 250 250 252 253 252 249 251 251 252 255 260 266 270 272 274 275 275 276 278 280 281 283 284 286 287 288 290 291
261 261 260 259 259 259 257 253 251 252 252 252 251 249 248 247 245 246 247 248 250 251 252 255 258 263 266 269 271 272 273 275 277 280 283 285 286 287 289 289 291 292 293
258 255 253 250 251 252 252 248 248 249 247 253 253 248 243 240 243 244 244 246 250 251 253 256 261 266 269 271 272 273 274 277 280 284 286 288 288 288 290 292 293 295 297
249 245 242 240 240 240 238 236 240 240 245 251 249 240 238 239 239 239 239 243 246 251 256 261 262 265 270 273 274 275 278 281 284 287 289 290 291 292 292 294 297 299 302
238 230 229 230 229 227 226 231 229 231 238 241 235 232 232 229 232 234 241 243 247 253 260 264 266 270 274 275 278 279 282 285 288 290 291 294 295 296 297 300 302 303 304
223 219 222 219 214 216 218 223 221 224 228 227 227 226 229 230 233 236 238 244 251 257 263 269 271 276 277 280 283 285 287 290 292 294 298 302 302 303 305 306 306 307 308
Height
5874 5875 5876 5876 5876 5876 5876 5876 5875 5875 5875 5875 5876 5876 5877 5878 5878 5878 5878 5878 5878 5878 5879 5880 5880 5881 5881 5881 5881 5881 5881 5881 5881 5881 5881 5881 5881 5880 5880 5879 5879 5878 5877
5870 5870 5871 5871 5871 5871 5870 5871 5870 5870 5870 5870 5871 5872 5872 5873 5874 5874 5874 5874 5874 5875 5875 5876 5877 5877 5877 5877 5878 5878 5878 5878 5878 5878 5878 5878 5877 5877 5876 5875 5875 5874 5873
5865 5866 5866 5866 5865 5865 5865 5865 5864 5864 5865 5865 5866 5866 5867 5868 5868 5869 5869 5869 5870 5870 5871 5872 5872 5872 5873 5873 5874 5874 5874 5874 5874 5874 5874 5874 5873 5873 5872 5871 5870 5870 5868
5860 5860 5860 5860 5859 5860 5860 5860 5859 5860 5860 5860 5861 5861 5862 5862 5863 5864 5864 5864 5865 5865 5867 5867 5868 5868 5868 5869 5869 5869 5869 5869 5870 5870 5870 5869 5869 5868 5868 5867 5866 5865 5864
5854 5854 5854 5853 5853 5853 5854 5854 5854 5854 5854 5855 5855 5856 5856 5856 5857 5858 5859 5859 5859 5860 5861 5862 5863 5863 5864 5864 5864 5864 5864 5865 5865 5865 5865 5865 5864 5864 5863 5862 5861 5859 5858
5848 5847 5847 5847 5847 5847 5848 5848 5848 5849 5849 5849 5849 5850 5851 5851 5851 5852 5853 5854 5855 5855 5856 5857 5858 5858 5859 5859 5859 5859 5860 5860 5860 5860 5860 5859 5859 5858 5857 5856 5855 5853 5852
5841 5841 5841 5841 5841 5841 5841 5842 5842 5843 5843 5843 5844 5844 5845 5845 5846 5846 5847 5848 5849 5850 5850 5851 5852 5852 5853 5853 5853 5854 5854 5855 5855 5854 5854 5854 5853 5852 5851 5850 5848 5847 5845
5835 5835 5835 5835 5835 5835 5835 5835 5835 5836 5837 5837 5838 5838 5838 5840 5839 5840 5841 5842 5843 5844 5844 5845 5846 5846 5847 5847 5848 5848 5848 5849 5848 5848 5848 5847 5847 5846 5844 5843 5842 5840 5838
5828 5828 5828 5828 5828 5828 5828 5828 5829 5829 5830 5830 5831 5831 5831 5832 5833 5834 5835 5836 5837 5838 5838 5839 5839 5840 5840 5841 5841 5842 5842 5842 5842 5842 5841 5841 5840 5839 5837 5836 5834 5833 5831
5821 5821 5821 5821 5821 5821 5821 5821 5822 5822 5822 5823 5823 5823 5824 5825 5826 5827 5828 5829 5830 5831 5832 5832 5833 5833 5834 5835 5835 5835 5835 5835 5835 5835 5834 5834 5832 5831 5830 5828 5827 5825 5823
5814 5814 5814 5814 5814 5814 5814 5814 5814 5814 5815 5815 5815 5816 5816 5817 5818 5820 5820 5821 5823 5824 5825 5825 5826 5827 5827 5828 5828 5828 5829 5828 5828 5828 5827 5826 5825 5823 5822 5820 5818 5816 5814
5807 5807 5806 5806 5806 5806 5807 5807 5807 5807 5807 5807 5808 5808 5809 5809 5811 5812 5813 5814 5815 5817 5818 5818 5819 5820 5820 5821 5821 5821 5821 5821 5821 5820 5819 5818 5817 5815 5813 5812 5810 5808 5805
5800 5799 5799 5798 5798 5798 5798 5799 5799 5799 5799 5800 5800 5800 5801 5802 5803 5804 5805 5806 5807 5809 5810 5811 5812 5813 5813 5813 5814 5814 5814 5813 5813 5812 5811 5810 5808 5807 5805 5803 5801 5799 5797
5792 5792 5791 5791 5791 5791 5791 5791 5791 5791 5792 5792 5792 5792 5793 5794 5795 5796 5798 5799 5800 5801 5802 5803 5804 5805 5806 5806 5806 5806 5806 5806 5805 5804 5803 5802 5800 5799 5797 5795 5793 5790 5788
5784 5784 5784 5783 5783 5783 5783 5783 5783 5783 5783 5784 5784 5785 5786 5786 5788 5789 5790 5792 5793 5794 5795 5796 5797 5798 5798 5798 5798 5798 5798 5798 5797 5796 5795 5793 5792 5790 5788 5786 5784 5782 5779
5776 5776 5776 5776 5775 5775 5775 5775 5775 5775 5775 5776 5777 5778 5778 5779 5780 5781 5782 5784 5785 5787 5788 5789 5789 5790 5790 5790 5790 5790 5790 5790 5789 5788 5787 5785 5784 5782 5780 5778 5775 5773 5770
5768 5768 5768 5768 5768 5767 5767 5767 5767 5768 5768 5769 5770 5770 5771 5772 5772 5774 5775 5776 5778 5779 5781 5781 5782 5782 5782 5782 5782 5782 5782 5782 5781 5780 5779 5777 5775 5773 5771 5769 5766 5764 5761
5760 5760 5760 5760 5760 5760 5760 5760 5760 5761 5761 5762 5762 5763 5764 5765 5766 5767 5768 5769 5770 5772 5773 5774 5774 5774 5775 5775 5775 5775 5775 5774 5773 5772 5771 5769 5767 5765 5763 5761 5758 5755 5753
5752 5752 5752 5753 5753 5753 5753 5753 5753 5754 5754 5755 5756 5757 5758 5759 5759 5760 5761 5763 5764 5765 5766 5767 5767 5768 5768 5768 5769 5768 5768 5767 5766 5765 5763 5761 5760 5758 5755 5753 5750 5748 5745
5744 5745 5745 5746 5746 5746 5746 5747 5747 5748 5749 5749 5750 5751 5752 5753 5754 5755 5756 5757 5758 5759 5760 5761 5761 5762 5762 5762 5762 5762 5761 5760 5759 5758 5756 5754 5752 5750 5748 5745 5743 5741 5738
5737 5738 5738 5739 5740 5740 5740 5741 5742 5743 5744 5744 5745 5746 5747 5748 5749 5750 5751 5752 5753 5754 5755 5756 5756 5757 5757 5757 5756 5755 5755 5753 5752 5751 5749 5747 5745 5743 5741 5739 5736 5734 5732
5730 5731 5732 5733 5734 5735 5735 5736 5737 5738 5739 5739 5740 5741 5742 5743 5744 5745 5746 5747 5748 5749 5750 5751 5751 5752 5751 5751 5750 5750 5749 5748 5746 5745 5743 5741 5739 5737 5735 5733 5731 5728 5726
5724 5726 5727 5728 5729 5730 5731 5732 5733 5734 5735 5735 5736 5737 5738 5739 5740 5741 5742 5743 5744 5745 5746 5747 5747 5747 5747 5746 5745 5744 5743 5742 5740 5739 5737 5735 5733 5731 5729 5727 5725 5723 5721
5719 5721 5723 5724 5725 5726 5727 5729 5730 5731 5731 5732 5733 5734 5735 5736 5737 5738 5739 5740 5741 5741 5742 5742 5743 5742 5742 5741 5740 5739 5738 5737 5735 5734 5732 5730 5728 5726 5725 5723 5720 5718 5716
5715 5717 5719 5720 5722 5723 5725 5726 5727 5728 5729 5730 5731 5731 5732 5733 5734 5735 5736 5737 5737 5738 5738 5738 5738 5738 5737 5737 5736 5735 5734 5732 5731 5730 5728 5726 5724 5722 5720 5719 5716 5714 5712
5712 5714 5716 5717 5719 5721 5722 5724 5725 5726 5727 5728 5728 5729 5730 5731 5732 5733 5734 5734 5735 5735 5735 5735 5735 5734 5734 5733 5732 5731 5730 5729 5727 5726 5724 5723 5721 5719 5717 5715 5713 5711 5709